Time,TemperatureF,DewpointF,PressureIn,WindDirection,WindDirectionDegrees,WindSpeedMPH,WindSpeedGustMPH,Humidity,HourlyPrecipIn,Conditions,Clouds,dailyrainin,SoftwareType,DateUTC
2013-05-01 00:19:00,43.4,43.4,30.29,SE,127,0.0,0.0,100,0.00,,FEW090,0.00,VWS V14.00,2013-05-01 04:19:00,
2013-05-01 00:39:00,43.2,43.2,30.30,SE,127,0.0,0.0,100,0.00,,FEW090,0.00,VWS V14.00,2013-05-01 04:39:00,
2013-05-01 00:58:00,43.0,43.0,30.30,SE,127,0.0,0.0,100,0.00,,FEW090,0.00,VWS V14.00,2013-05-01 04:58:00,
2013-05-01 01:19:00,42.4,42.4,30.30,SE,127,0.0,0.0,100,0.00,,FEW090,0.00,VWS V14.00,2013-05-01 05:19:00,
2013-05-01 01:39:00,42.5,42.5,30.30,SE,127,0.0,0.0,100,0.00,,FEW090,0.00,VWS V14.00,2013-05-01 05:39:00,
2013-05-01 01:59:00,41.9,41.9,30.31,SE,127,0.0,0.0,100,0.00,,FEW065,0.00,VWS V14.00,2013-05-01 05:59:00,
2013-05-01 02:18:00,40.8,40.8,30.30,SE,127,0.0,0.0,100,0.00,,FEW065,0.00,VWS V14.00,2013-05-01 06:18:00,
2013-05-01 02:39:00,40.0,40.0,30.30,SE,127,0.0,0.0,100,0.00,,FEW065,0.00,VWS V14.00,2013-05-01 06:39:00,
2013-05-01 02:59:00,41.4,41.4,30.30,SE,127,0.0,0.0,100,0.00,,FEW060,0.00,VWS V14.00,2013-05-01 06:59:00,
2013-05-01 03:18:00,40.7,40.7,30.31,SE,127,0.0,0.0,100,0.00,,FEW060,0.00,VWS V14.00,2013-05-01 07:18:00,
2013-05-01 03:39:00,40.4,40.4,30.31,SE,127,0.0,0.0,100,0.00,,FEW060,0.00,VWS V14.00,2013-05-01 07:39:00,
2013-05-01 03:59:00,40.0,40.0,30.31,SE,127,0.0,0.0,100,0.00,,SCT060,0.00,VWS V14.00,2013-05-01 07:59:00,
2013-05-01 04:18:00,39.1,39.1,30.32,SE,127,0.0,0.0,100,0.00,,SCT060,0.00,VWS V14.00,2013-05-01 08:18:00,
2013-05-01 04:39:00,38.2,38.2,30.32,SE,127,0.0,0.0,100,0.00,,SCT060,0.00,VWS V14.00,2013-05-01 08:39:00,
2013-05-01 04:59:00,39.3,39.3,30.32,SE,127,0.0,0.0,100,0.00,,SCT250,0.00,VWS V14.00,2013-05-01 08:59:00,
2013-05-01 05:18:00,38.2,38.2,30.32,SE,127,0.0,0.0,100,0.00,,SCT250,0.00,VWS V14.00,2013-05-01 09:18:00,
2013-05-01 05:39:00,39.0,39.0,30.33,SE,127,0.0,0.0,100,0.00,,SCT250,0.00,VWS V14.00,2013-05-01 09:39:00,
2013-05-01 05:59:00,38.5,38.5,30.33,SE,127,0.0,0.0,100,0.00,,SCT060,0.00,VWS V14.00,2013-05-01 09:59:00,
2013-05-01 06:18:00,38.9,38.9,30.33,SE,127,0.0,0.0,100,0.00,,SCT060,0.00,VWS V14.00,2013-05-01 10:18:00,
2013-05-01 06:38:00,37.6,37.6,30.34,SE,127,0.0,0.0,100,0.00,,SCT060,0.00,VWS V14.00,2013-05-01 10:38:00,
2013-05-01 06:59:00,39.4,39.4,30.35,SE,127,0.0,0.0,100,0.00,,SCT250,0.00,VWS V14.00,2013-05-01 10:59:00,
2013-05-01 07:18:00,39.6,39.6,30.35,SE,127,0.0,0.0,100,0.00,,SCT250,0.00,VWS V14.00,2013-05-01 11:18:00,
2013-05-01 07:38:00,40.3,40.3,30.36,SE,127,0.0,0.0,100,0.00,,SCT250,0.00,VWS V14.00,2013-05-01 11:38:00,
2013-05-01 07:59:00,42.3,42.3,30.37,NE,55,2.6,6.3,100,0.00,,SCT250,0.00,VWS V14.00,2013-05-01 11:59:00,
2013-05-01 08:19:00,43.7,43.7,30.37,North,4,0.0,6.7,100,0.00,,SCT250,0.00,VWS V14.00,2013-05-01 12:19:00,
2013-05-01 08:38:00,46.2,46.2,30.38,North,359,0.0,7.7,100,0.00,,SCT250,0.00,VWS V14.00,2013-05-01 12:38:00,
2013-05-01 08:59:00,47.7,47.7,30.38,North,359,0.0,9.6,100,0.00,,SCT250,0.00,VWS V14.00,2013-05-01 12:59:00,
2013-05-01 09:19:00,48.5,46.9,30.39,NE,37,0.0,8.3,94,0.00,,FEW250,0.00,VWS V14.00,2013-05-01 13:19:00,
2013-05-01 09:38:00,49.7,45.4,30.39,East,79,8.1,10.2,85,0.00,,FEW250,0.00,VWS V14.00,2013-05-01 13:38:00,
2013-05-01 09:59:00,53.2,47.3,30.39,NE,52,7.1,9.1,80,0.00,,FEW250,0.00,VWS V14.00,2013-05-01 13:59:00,
2013-05-01 10:19:00,53.0,44.6,30.40,NNE,17,4.3,9.0,73,0.00,,FEW250,0.00,VWS V14.00,2013-05-01 14:19:00,
2013-05-01 10:38:00,54.8,44.8,30.40,East,90,2.3,11.4,69,0.00,,FEW250,0.00,VWS V14.00,2013-05-01 14:38:00,
2013-05-01 10:59:00,56.9,43.7,30.40,North,3,2.5,13.7,61,0.00,,FEW250,0.00,VWS V14.00,2013-05-01 14:59:00,
2013-05-01 11:19:00,56.4,42.0,30.40,North,359,5.7,11.2,58,0.00,,FEW250,0.00,VWS V14.00,2013-05-01 15:19:00,
2013-05-01 11:38:00,58.1,41.9,30.39,ENE,76,7.0,11.2,55,0.00,,FEW250,0.00,VWS V14.00,2013-05-01 15:38:00,
2013-05-01 11:59:00,59.1,42.0,30.39,NE,46,10.7,12.1,53,0.00,,FEW250,0.00,VWS V14.00,2013-05-01 15:59:00,
2013-05-01 12:19:00,59.4,40.8,30.40,ENE,62,11.6,12.2,50,0.00,,FEW250,0.00,VWS V14.00,2013-05-01 16:19:00,
2013-05-01 12:38:00,61.3,41.0,30.39,NNW,342,4.9,11.7,47,0.00,,FEW250,0.00,VWS V14.00,2013-05-01 16:38:00,
2013-05-01 12:58:00,60.9,40.2,30.39,East,80,10.4,11.6,46,0.00,,CLR,0.00,VWS V14.00,2013-05-01 16:58:00,
2013-05-01 13:19:00,61.0,38.4,30.38,East,89,4.7,13.4,43,0.00,,CLR,0.00,VWS V14.00,2013-05-01 17:19:00,
2013-05-01 13:38:00,63.4,39.8,30.38,ENE,76,6.2,13.7,42,0.00,,CLR,0.00,VWS V14.00,2013-05-01 17:38:00,
2013-05-01 13:58:00,62.9,38.0,30.38,ENE,75,8.5,16.0,40,0.00,,CLR,0.00,VWS V14.00,2013-05-01 17:58:00,
2013-05-01 14:19:00,63.1,37.4,30.38,East,84,9.3,13.8,38,0.00,,FEW250,0.00,VWS V14.00,2013-05-01 18:19:00,
2013-05-01 14:39:00,64.5,38.2,30.38,SSE,148,12.6,13.7,38,0.00,,FEW250,0.00,VWS V14.00,2013-05-01 18:39:00,
2013-05-01 14:58:00,63.6,36.5,30.37,NE,49,4.6,14.9,36,0.00,,CLR,0.00,VWS V14.00,2013-05-01 18:58:00,
2013-05-01 15:18:00,64.2,36.8,30.37,ENE,59,9.1,13.8,36,0.00,,CLR,0.00,VWS V14.00,2013-05-01 19:18:00,
2013-05-01 15:39:00,64.4,36.2,30.37,ESE,121,10.1,14.0,35,0.00,,CLR,0.00,VWS V14.00,2013-05-01 19:39:00,
2013-05-01 15:58:00,65.7,37.3,30.37,ENE,66,6.2,12.8,35,0.00,,FEW250,0.00,VWS V14.00,2013-05-01 19:58:00,
2013-05-01 16:19:00,64.2,35.7,30.37,East,97,9.4,13.0,35,0.00,,FEW250,0.00,VWS V14.00,2013-05-01 20:19:00,
2013-05-01 16:39:00,65.8,37.3,30.37,ESE,112,5.3,13.6,35,0.00,,FEW250,0.00,VWS V14.00,2013-05-01 20:39:00,
2013-05-01 16:58:00,65.9,37.8,30.37,ESE,103,9.9,11.6,35,0.00,,SCT250,0.00,VWS V14.00,2013-05-01 20:58:00,
2013-05-01 17:18:00,65.0,36.6,30.37,ENE,68,7.1,14.3,35,0.00,,SCT250,0.00,VWS V14.00,2013-05-01 21:18:00,
2013-05-01 17:39:00,64.9,36.8,30.38,ESE,107,7.4,9.4,35,0.00,,SCT250,0.00,VWS V14.00,2013-05-01 21:39:00,
2013-05-01 17:58:00,61.5,36.5,30.38,ENE,65,6.2,12.7,39,0.00,,SCT250,0.00,VWS V14.00,2013-05-01 21:58:00,
2013-05-01 18:19:00,59.8,37.0,30.38,SE,128,5.4,11.2,42,0.00,,SCT250,0.00,VWS V14.00,2013-05-01 22:19:00,
2013-05-01 18:39:00,58.0,36.1,30.38,ESE,104,7.6,10.1,44,0.00,,SCT250,0.00,VWS V14.00,2013-05-01 22:39:00,
2013-05-01 18:58:00,58.3,37.2,30.38,ENE,75,6.1,11.9,45,0.00,,FEW080,0.00,VWS V14.00,2013-05-01 22:58:00,
2013-05-01 19:19:00,57.7,42.7,30.39,East,97,9.5,18.0,57,0.00,,FEW080,0.00,VWS V14.00,2013-05-01 23:19:00,
2013-05-01 19:38:00,55.7,44.5,30.39,East,96,12.4,17.3,66,0.00,,FEW080,0.00,VWS V14.00,2013-05-01 23:38:00,
2013-05-01 19:59:00,54.3,44.5,30.40,East,98,6.5,13.9,69,0.00,,SCT200,0.00,VWS V14.00,2013-05-01 23:59:00,
2013-05-01 20:18:00,52.8,43.9,30.40,ENE,63,0.0,12.1,72,0.00,,SCT200,0.00,VWS V14.00,2013-05-02 00:18:00,
2013-05-01 20:38:00,52.3,44.2,30.41,ESE,120,6.2,14.9,74,0.00,,SCT200,0.00,VWS V14.00,2013-05-02 00:38:00,
2013-05-01 20:59:00,52.1,44.8,30.41,ENE,76,0.0,7.5,76,0.00,,FEW200,0.00,VWS V14.00,2013-05-02 00:59:00,
2013-05-01 21:18:00,50.4,44.6,30.42,NNE,13,0.0,5.7,80,0.00,,FEW200,0.00,VWS V14.00,2013-05-02 01:18:00,
2013-05-01 21:38:00,50.9,46.1,30.43,NE,46,0.0,7.1,83,0.00,,FEW200,0.00,VWS V14.00,2013-05-02 01:38:00,
2013-05-01 21:59:00,51.0,47.3,30.43,East,87,6.5,9.2,87,0.00,,FEW200,0.00,VWS V14.00,2013-05-02 01:59:00,
2013-05-01 22:18:00,48.6,46.2,30.43,NNE,20,0.0,6.5,91,0.00,,FEW200,0.00,VWS V14.00,2013-05-02 02:18:00,
2013-05-01 22:38:00,47.9,45.8,30.42,NE,51,0.0,5.4,92,0.00,,FEW200,0.00,VWS V14.00,2013-05-02 02:38:00,
2013-05-01 22:59:00,47.8,46.0,30.42,NE,39,4.8,9.6,94,0.00,,CLR,0.00,VWS V14.00,2013-05-02 02:59:00,
2013-05-01 23:18:00,47.8,46.1,30.41,NE,34,3.0,9.3,94,0.00,,CLR,0.00,VWS V14.00,2013-05-02 03:18:00,
2013-05-01 23:38:00,47.0,45.5,30.41,North,359,0.0,6.6,94,0.00,,CLR,0.00,VWS V14.00,2013-05-02 03:38:00,